Карточка аэропорта UAII

Внимание!
Информация на этой странице в стадии наполнения.
Если вы не увидели какой-то информации, или заметили неточность - пожалуйста сообщите нам!
Спасибо!
Команда RU-STAFF
Название аэропортаШымкент
Название аэропорта (англ.)Shymkent
Превышение1389 ft. (423.4 m.)
Координаты42°21.348', 69°28.734'
Высота перехода10000ft
Эшелон переходаFL120, QNH<733:FL130
Коды ответчика3430-3437, 3530-3537
Зона ОрВДШымкент РПИ (UAII)
Данные METARUAII 271930Z 14002MPS CAVOK 12/00 Q1018 NOSIG RMK QFE728/0971
Проноз погоды (TAF)UAII 271702Z 2718/2818 23003G08MPS 6000 SCT040 TX25/2810Z TN10/2801Z TEMPO 2718/2804 17003G08MPS 4000 FU SCT050CB TEMPO 2805/2814 32003G08MPS BKN050CB
NOTAMshow/hide NOTAM
AWOS   TABLE

Информация о ВПП

ВПП Длина ВПП (м.) Покрытие Курс ВПП Частота ILS
103300Железобетон106111.7
283300Железобетон286110.3

Диспетчерские позиции

Позывной Наименование органа УВД Частота
UAII_TWRШымкент Вышка125.9
UAII_APPШымкент-Подход120.3



Спутниковое изображение